This demonstration page uses our WeatherBlox Daily Observations layout. Learn more.

Hourly Observations for January 2, 2019

Temp ( °F °C ) Dew Point ( °F °C ) Humidity (%) Winds ( mph kmh ) Pressure ( in mb ) Visibility ( mi km ) Precip ( " mm )
12:15 am 00:15 Clear 10 -12.3 1 -17.5 65 65 SW 12 19 30.36 1028 10 16.09344 0 0
12:35 am 00:35 Clear 10 -12.3 1 -17.3 67 67 SSW 14 22 30.33 1027 10 16.09344 0 0
12:55 am 00:55 Clear 10 -12.2 1 -17 68 68 SSW 13 20 30.33 1027 10 16.09344 0 0
1:15 am 01:15 Clear 11 -11.8 2 -16.6 68 68 SW 14 22 30.33 1027 10 16.09344 0 0
1:35 am 01:35 Clear 11 -11.5 3 -16.3 68 68 SW 12 19 30.33 1027 10 16.09344 0 0
1:55 am 01:55 Clear 12 -11.1 4 -15.7 69 69 SW 16 26 30.33 1027 10 16.09344 0 0
2:15 am 02:15 Clear 12 -10.9 4 -15.3 70 70 SW 14 22 30.33 1027 10 16.09344 0 0
2:35 am 02:35 Clear 12 -11.1 4 -15.5 70 70 SW 14 22 30.3 1026 10 16.09344 0 0
2:55 am 02:55 Clear 11 -11.5 4 -15.6 72 72 SW 14 22 30.3 1026 10 16.09344 0 0
3:15 am 03:15 Clear 11 -11.6 4 -15.6 73 73 SW 9 15 30.3 1026 10 16.09344 0 0
3:35 am 03:35 Clear 10 -12.1 3 -15.9 74 74 WSW 7 11 30.3 1026 10 16.09344 0 0
3:55 am 03:55 Clear 10 -12.2 4 -15.8 75 75 WSW 7 11 30.27 1025 10 16.09344 0 0
4:15 am 04:15 Clear 10 -12.3 4 -15.8 75 75 WSW 7 11 30.27 1025 10 16.09344 0 0
4:35 am 04:35 Clear 9 -13 3 -16.2 77 77 WSW 6 9 30.27 1025 10 16.09344 0 0
4:55 am 04:55 Clear 10 -12.1 3 -15.9 74 74 W 9 15 30.27 1025 10 16.09344 0 0
5:15 am 05:15 Clear 10 -12.5 3 -16.1 75 75 WSW 7 11 30.27 1025 10 16.09344 0 0
5:35 am 05:35 Clear 9 -12.7 2 -16.4 74 74 WSW 5 7 30.27 1025 10 16.09344 0 0
5:55 am 05:55 Clear 9 -12.7 2 -16.5 73 73 WSW 7 11 30.27 1025 10 16.09344 0 0
6:15 am 06:15 Clear 9 -13 2 -16.7 74 74 WSW 6 9 30.27 1025 10 16.09344 0 0
6:35 am 06:35 Clear 9 -13 2 -16.8 73 73 W 7 11 30.27 1025 10 16.09344 0 0
6:55 am 06:55 Clear 8 -13.5 1 -17.3 73 73 W 6 9 30.3 1026 10 16.09344 0 0
7:15 am 07:15 Clear 8 -13.5 1 -17.2 74 74 W 8 13 30.3 1026 10 16.09344 0 0
7:35 am 07:35 Clear 9 -13 2 -16.7 74 74 WNW 6 9 30.27 1025 10 16.09344 0 0
7:55 am 07:55 Clear 8 -13.1 2 -16.9 73 73 WNW 8 13 30.27 1025 10 16.09344 0 0
8:15 am 08:15 Sunny 7 -13.7 1 -17.2 75 75 NW 6 9 30.3 1026 10 16.09344 0 0
8:35 am 08:35 Sunny 8 -13.5 2 -16.9 76 76 NW 7 11 30.3 1026 10 16.09344 0 0
8:55 am 08:55 Sunny 9 -12.8 2 -16.5 74 74 NW 6 9 30.27 1025 10 16.09344 0 0
9:15 am 09:15 Sunny 11 -11.6 4 -15.7 72 72 NW 7 11 30.27 1025 10 16.09344 0 0
9:35 am 09:35 Sunny 13 -10.5 5 -15 70 70 WNW 6 9 30.3 1026 10 16.09344 0 0
9:55 am 09:55 Sunny 14 -10.1 6 -14.4 71 71 WNW 5 7 30.27 1025 10 16.09344 0 0
10:15 am 10:15 Sunny 16 -8.7 8 -13.5 69 69 WNW 12 19 30.24 1024 10 16.09344 0 0
10:35 am 10:35 Sunny 20 -6.6 10 -12.4 64 64 WNW 13 20 30.21 1023 10 16.09344 0 0
10:55 am 10:55 Sunny 22 -5.6 10 -12.2 60 60 WNW 15 24 30.21 1023 10 16.09344 0 0
11:15 am 11:15 Sunny 23 -4.8 11 -11.4 60 60 WNW 13 20 30.18 1022 10 16.09344 0 0
11:35 am 11:35 Sunny 26 -3.5 13 -10.8 57 57 NW 13 20 30.18 1022 10 16.09344 0 0
11:55 am 11:55 Sunny 27 -3 14 -10 59 59 NW 9 15 30.18 1022 10 16.09344 0 0
12:15 pm 12:15 Sunny 28 -2.5 14 -10 57 57 WNW 12 19 30.18 1022 10 16.09344 0 0
12:35 pm 12:35 Sunny 28 -2.2 15 -9.3 59 59 WNW 9 15 30.18 1022 10 16.09344 0 0
12:55 pm 12:55 Sunny 30 -1.2 16 -8.7 57 57 WNW 7 11 30.15 1021 10 16.09344 0 0
1:15 pm 13:15 Sunny 31 -0.5 18 -7.9 58 58 W 5 7 30.15 1021 10 16.09344 0 0
1:35 pm 13:35 Sunny 32 0 19 -7.1 59 59 WNW 7 11 30.12 1020 10 16.09344 0 0
1:55 pm 13:55 Sunny 33 0.6 19 -7.2 56 56 NW 10 17 30.12 1020 10 16.09344 0 0
2:15 pm 14:15 Sunny 34 1.1 20 -6.8 56 56 NW 12 19 30.09 1019 10 16.09344 0 0
2:35 pm 14:35 Sunny 35 1.5 20 -6.9 54 54 NW 12 19 30.09 1019 10 16.09344 0 0
2:55 pm 14:55 Sunny 34 1.3 20 -6.4 57 57 WNW 8 13 30.09 1019 10 16.09344 0 0
3:15 pm 15:15 Sunny 35 1.5 22 -5.3 61 61 NW 3 6 30.09 1019 10 16.09344 0 0
3:35 pm 15:35 Sunny 36 2.1 21 -6 55 55 SW 3 6 30.09 1019 10 16.09344 0 0
3:55 pm 15:55 Sunny 35 1.8 23 -5.2 60 60 SSW 5 7 30.09 1019 10 16.09344 0 0
4:15 pm 16:15 Sunny 35 1.8 22 -5.5 59 59 SSW 5 7 30.09 1019 10 16.09344 0 0
4:35 pm 16:35 Sunny 35 1.4 23 -5.2 62 62 SW 7 11 30.09 1019 10 16.09344 0 0
4:55 pm 16:55 Sunny 33 0.6 22 -5.5 64 64 SW 6 9 30.12 1020 10 16.09344 0 0
5:15 pm 17:15 Sunny 32 0.2 22 -5.8 64 64 SSW 6 9 30.12 1020 10 16.09344 0 0
5:35 pm 17:35 Clear 32 0 21 -6.1 64 64 SSW 6 9 30.12 1020 10 16.09344 0 0
5:55 pm 17:55 Clear 32 -0.1 21 -6 65 65 SW 6 9 30.12 1020 10 16.09344 0 0
6:15 pm 18:15 Clear 31 -0.6 21 -6.1 67 67 SSW 6 9 30.12 1020 10 16.09344 0 0
6:35 pm 18:35 Clear 28 -2.5 20 -6.5 74 74 SSW 10 17 30.18 1022 10 16.09344 0 0
6:55 pm 18:55 Clear 28 -2.3 20 -6.4 74 74 SW 8 13 30.18 1022 10 16.09344 0 0
7:15 pm 19:15 Clear 26 -3.5 20 -6.7 79 79 SW 6 9 30.18 1022 10 16.09344 0 0
7:35 pm 19:35 Clear 26 -3.6 19 -7 78 78 SW 3 6 30.18 1022 10 16.09344 0 0
7:55 pm 19:55 Clear 27 -3 20 -6.6 76 76 Calm 30.18 1022 10 16.09344 0 0
8:15 pm 20:15 Clear 26 -3.4 19 -7.1 76 76 Calm 30.18 1022 10 16.09344 0 0
8:35 pm 20:35 Clear 25 -4.1 18 -8 75 75 Calm 30.18 1022 10 16.09344 0 0
8:55 pm 20:55 Clear 20 -6.8 16 -9 85 85 Calm 30.21 1023 10 16.09344 0 0
9:15 pm 21:15 Clear 22 -5.4 18 -7.9 83 83 NNW 3 6 30.21 1023 10 16.09344 0 0
9:35 pm 21:35 Clear 19 -7 16 -9 86 86 Calm 30.21 1023 10 16.09344 0 0
9:55 pm 21:55 Clear 19 -7.4 15 -9.6 84 84 Calm 30.21 1023 10 16.09344 0 0
10:15 pm 22:15 Clear 20 -6.4 18 -8 89 89 WNW 5 7 30.21 1023 10 16.09344 0 0
10:35 pm 22:35 Clear 17 -8.5 13 -10.4 86 86 NNW 5 7 30.24 1024 10 16.09344 0 0
10:55 pm 22:55 Clear 17 -8.2 14 -10.1 86 86 NW 5 7 30.24 1024 10 16.09344 0 0
11:15 pm 23:15 Clear 17 -8.1 14 -10 86 86 NW 6 9 30.24 1024 10 16.09344 0 0
11:35 pm 23:35 Clear 17 -8.2 14 -10.2 86 86 WNW 6 9 30.24 1024 10 16.09344 0 0
11:55 pm 23:55 Clear 17 -8.5 13 -10.5 86 86 NW 6 9 30.24 1024 10 16.09344 0 0

Powered by AerisWeather